Location: Alta
(39.2070°N, 120.8111°W)
Time: 09:21:46
(UTC+00:00)

ITAMSAT 1 - Pass Details

Date: 03 April 2023
Orbit: 782 x 797 km, 98.8° (Epoch: 28 May)

Event Time Altitude Azimuth Distance (km) Brightness Sun altitude
Exits shadow 04:06:49 - 180° (S) 2,854 10.3 -19.2°
Reaches altitude 10° 04:08:07 10° 183° (S) 2,349 9.9 -19.4°
Maximum altitude 04:13:11 52° 260° (W) 979 8.4 -20.3°
Drops below altitude 10° 04:18:17 10° 336° (NNW) 2,372 10.8 -21.2°
Sets 04:20:42 0° 342° (NNW) 3,308 11.6 -21.6°
